Pacific - South Coast: Past 24 Hour Conditions

 

Herbert Island

05:00 PM PDT 22 October 2014
This table is a summary of hourly weather conditions for the past 24 hours.
Date / Time
(PDT)
Wind(knots) Conditions Visibility(km) Pressure(kPa) Air tempC) Relative humidity(%) Dew pointC)
22 October 2014
17:00 SE 19 N/A N/A 99.8 10 87 8
16:00 ESE 15 gust 22 N/A N/A 99.8 11 84 8
15:00 SE 17 N/A N/A 99.8 10 93 9
14:00 ESE 21 gust 27 N/A N/A 99.8 11 90 9
13:00 ESE 24 N/A N/A 99.8 10 88 8
12:00 ESE 22 gust 27 N/A N/A 99.8 10 89 8
11:00 ESE 24 gust 31 N/A N/A 99.8 10 89 8
10:00 ESE 21 N/A N/A 99.8 9 90 8
9:00 SE 24 N/A N/A 99.8 9 88 7
8:00 ESE 18 N/A N/A 99.8 10 89 8
7:00 ESE 18 N/A N/A 99.8 10 91 8
6:00 ESE 17 N/A N/A 99.8 10 92 8
5:00 ESE 19 N/A N/A 99.8 10 89 8
4:00 ESE 13 N/A N/A 99.7 10 89 8
3:00 ESE 11 N/A N/A 99.7 10 88 8
2:00 SE 12 N/A N/A 99.7 10 91 9
1:00 ESE 14 N/A N/A 99.6 10 89 9
0:00 ESE 16 gust 21 N/A N/A 99.6 10 89 9
21 October 2014
23:00 ESE 5 N/A N/A 99.6 11 88 9
22:00 SSE 13 gust 19 N/A N/A 99.7 11 91 9
21:00 SE 18 N/A N/A 99.7 11 93 10
20:00 SE 20 N/A N/A 99.8 12 92 10
19:00 SE 22 N/A N/A 99.9 12 93 10
18:00 ESE 20 gust 26 N/A N/A 99.9 12 91 10
17:00 SE 23 gust 29 N/A N/A 99.9 12 86 10
 
Map of Pacific - South Coast marine weather areas Tsawwassen Ferry Terminal South Nomad - 46036 Sentry Shoal - 46131 South Brooks - 46132 Halibut Bank - 46146 South Moresby - 46147 South Hecate Strait - 46185 West Sea Otter - 46204 La Perouse Bank - 46206 East Dellwood - 46207 Discovery Island Esquimalt Harbour Kelp Reefs Malahat Race Rocks Lightstation Saturna Island Sheringham Point University of Victoria Victoria Gonzales Victoria Int'l Airport Ballenas Islands Campbell River Airport Comox Airport Entrance Island Fanny Island Nanaimo Airport Port Hardy Airport Sisters Islets Estevan Point Sartine Island Solander Island Tofino Airport Grief Point Powell River Airport Sechelt Cape St.James Bella Bella Airport Bella Coola Airport Cathedral Point Herbert Island Point Atkinson Sand Heads Lightstation Vancouver Harbour Vancouver Int'l Airport West Vancouver Port Alberni Howe Sound - Pam Rocks Squamish Airport